Terminal Aerodrome Forecast
Issued by NWS

Home | Current Version | Previous Version | Graphics & Text | Print | Product List | Glossary On
Versions: 1 2 3 4 5 6 7 8 9 10 11 12 13 14
000
FTUS43 KGRB 211315 AAA
TAFCWA
TAF AMD
KCWA 211315Z 2113/2212 33015G22KT P6SM SCT015
     FM211500 34011KT P6SM SCT020 SCT040
     FM211700 34010KT P6SM SKC
     FM220100 01006KT P6SM SKC=

USA.gov is the U.S. government's official web portal to all federal, state and local government web resources and services.